Starlink 6178

operational
NORAD ID: 56387 Int'l Des: 2023-061 Owner: SPXS Country: US Constellation: starlink
LEOCIRCULAR

About Starlink 6178

Description loading...

Live Position

Loading 3D Globe...

Upcoming Passes

Altitude History

Altitude vs Time

uPlot chart will show altitude changes over time

Two-Line Element Set

1 56387U 23061P 25318.77564714 -.00000161 00000-0 31263-5 0 9990
2 56387 43.0024 101.4369 0001055 247.5415 112.5316 15.02530875139476
Epoch: Nov 14, 2025 • Age: 9 hours

Current Status

Altitude 558.2 km
Velocity 7.59 km/s
Sub-Earth Point 14.28°N, 159.8°E
Launch Date May 4, 2023
Age 2.5 years
Type internet

Technical Details

Classification Payload
Mass 305.00 kg
Dry Mass 290.00 kg
Total Mass 305.00 kg
Length 0.20 m
Diameter 2.80 m
Span 9.00 m
Shape Box + pan
Manufacturer SPXS
Bus Type Starlink
Phase Status In Orbit
Owner/State SPXS/US

Large Constellations

Loading constellations...